Location: Tamazert
(32.6352°N, 5.2072°W)
Time: 05:29:34
(UTC+00:00)

Vanguard 2 - Pass Details

Date: 10 October 2022
Orbit: 553 x 2933 km, 32.9° (Epoch: 04 December)

Event Time Altitude Azimuth Distance (km) Brightness Sun altitude
Rises 12:41:42 0° 266° (W) 4,011 11.4 49.8°
Reaches altitude 10° 12:43:59 10° 267° (W) 3,290 11.0 49.7°
Maximum altitude 12:52:42 89° 355° (N) 1,831 10.3 49.2°
Drops below altitude 10° 13:07:30 10° 89° (E) 5,294 11.7 48.1°
Sets 13:12:14 0° 90° (E) 6,537 12.1 47.7°
